This demonstration page uses our WeatherBlox Daily Observations layout. Learn more.

Left ArrowRight Arrow

38.88101, -77.10428

Hourly Observations for March 7, 2019

Temp ( °F °C ) Dew Point ( °F °C ) Humidity (%) Winds ( mph kmh ) Pressure ( in mb ) Visibility ( mi km ) Precip ( " mm )
12:52 am 00:52 Mostly Clear 25 -3.9 7 -13.9 46 46 NNW 6 9 30.33 1027 10 16.0934 0 0
1:52 am 01:52 Partly Cloudy 26 -3.3 7 -13.9 44 44 N 3 6 30.32 1027 10 16.0934 0 0
2:52 am 02:52 Partly Cloudy 25 -3.9 8 -13.3 48 48 NNW 5 7 30.32 1027 10 16.0934 0 0
3:52 am 03:52 Cloudy 25 -3.9 10 -12.2 53 53 SW 6 9 30.33 1027 10 16.0934 0 0
4:52 am 04:52 Cloudy 26 -3.3 10 -12.2 51 51 WSW 5 7 30.34 1027 10 16.0934 0 0
5:52 am 05:52 Cloudy 26 -3.3 11 -11.7 53 53 WSW 5 7 30.35 1028 10 16.0934 0 0
6:52 am 06:52 Mostly Cloudy 27 -2.8 10 -12.2 49 49 SSW 8 13 30.36 1028 10 16.0934 0 0
7:52 am 07:52 Mostly Cloudy 28 -2.2 11 -11.7 49 49 SSW 9 15 30.37 1028 10 16.0934 0 0
8:52 am 08:52 Mostly Cloudy 31 -0.6 11 -11.7 43 43 SSW 7 11 30.38 1029 10 16.0934 0 0
9:52 am 09:52 Mostly Cloudy 33 0.6 11 -11.7 40 40 S 8 13 30.37 1029 10 16.0934 0 0
10:52 am 10:52 Mostly Cloudy 36 2.2 11 -11.7 35 35 SW 9 15 30.36 1028 10 16.0934 0 0
11:52 am 11:52 Mostly Cloudy 40 4.4 12 -11.1 32 32 W 13 20 30.35 1028 10 16.0934 0 0
12:52 pm 12:52 Mostly Cloudy 41 5 12 -11.1 30 30 W 13 20 30.33 1027 10 16.0934 0 0
1:52 pm 13:52 Mostly Cloudy 41 5 11 -11.7 29 29 WSW 9 15 30.31 1026 10 16.0934 0 0
2:52 pm 14:52 Mostly Cloudy 44 6.7 12 -11.1 27 27 W 14 22 30.29 1026 10 16.0934 0 0
3:52 pm 15:52 Mostly Cloudy 45 7.2 12 -11.1 26 26 W 13 20 30.29 1026 10 16.0934 0 0
4:52 pm 16:52 Sunny 44 6.7 10 -12.2 25 25 WNW 13 20 30.29 1026 10 16.0934 0 0
5:52 pm 17:52 Mostly Cloudy 40 4.4 12 -11.1 32 32 NNW 9 15 30.32 1027 10 16.0934 0 0
6:52 pm 18:52 Cloudy 39 3.9 13 -10.6 34 34 N 12 19 30.33 1027 10 16.0934 0 0
7:52 pm 19:52 Cloudy 39 3.9 12 -11.1 33 33 N 8 13 30.35 1028 10 16.0934 0 0
8:52 pm 20:52 Cloudy 37 2.8 15 -9.4 41 41 N 7 11 30.35 1028 10 16.0934 0 0
9:52 pm 21:52 Cloudy 37 2.8 17 -8.3 44 44 NE 6 9 30.38 1029 10 16.0934 0 0
10:52 pm 22:52 Cloudy 37 2.8 16 -8.9 42 42 ENE 6 9 30.4 1029 10 16.0934 0 0
11:52 pm 23:52 Cloudy 36 2.2 16 -8.9 44 44 ENE 7 11 30.4 1029 10 16.0934 0 0

Powered by AerisWeather